Location: ??????
(56.0120°N, 39.1740°E)
Time: 20:23:12
(UTC+00:00)

NOSS 2-1 (E) - Pass Details

Date: 14 April 2026
Orbit: 385 x 1749 km, 63.3° (Epoch: 7 May)

Event Time Altitude Azimuth Distance (km) Brightness Sun altitude
Rises 18:58:20 0° 305° (NW) 2,312 7.9 -17.8°
Reaches altitude 10° 19:00:16 10° 297° (WNW) 1,502 6.5 -18.0°
Maximum altitude 19:03:21 42° 225° (SW) 684 3.7 -18.2°
Enters shadow 19:03:59 37° 196° (SSW) 757 3.7 -18.3°
